Ithaca, NY

7:34 PM EDT on June 22, 2017 (GMT -0400)
Tompkins County

Weather History for KITH - July, 2015

Change the Weather History Date:

Friday, July 10, 2015

  Actual Average Record
Temperature  
Mean Temperature 64 °F -  
Max Temperature 75 °F 80 °F 102 °F (1936)
Min Temperature 52 °F 57 °F 42 °F (1953)
Degree Days  
Heating Degree Days 2    
Growing Degree Days 14 (Base 50)    
Moisture  
Dew Point 57 °F    
Average Humidity 87    
Maximum Humidity 100    
Minimum Humidity 48    
Precipitation  
Precipitation 0.00 in - - ()
Sea Level Pressure  
Sea Level Pressure 30.05 in    
Wind  
Wind Speed 4 mph (NNW)    
Max Wind Speed 12 mph    
Max Gust Speed 17 mph    
Visibility 6 miles    
Events Fog    
Averages and records for this station are not official NWS values.
T = Trace of Precipitation, MM = Missing Value Source: NWS Daily Summary

Daily Weather History Graph

Daily Weather History Graph

Search for Another Location

Airport or City:

Trip Planner

Search our weather history database for the weather conditions in past years. The results will help you decide how hot, cold, wet, or windy it might be!

Date:

Astronomy

Jul. 10, 2015 Rise Set
Actual Time 5:37 AM EDT 8:44 PM EDT
Civil Twilight 5:03 AM EDT 9:18 PM EDT
Nautical Twilight 4:19 AM EDT 10:01 PM EDT
Astronomical Twilight 3:27 AM EDT 10:53 PM EDT
Moon 1:31 AM EDT (7/10) 3:27 PM EDT (7/10)
Length of Visible Light 16h 14m
Length of Day
15h 06m
Waning Crescent, 30% of the Moon is Illuminated
Jul 10
Waning Crescent
Jul 15
New
Jul 24
First Quarter
Jul 31
Full
Aug 6
Last Quarter

Hourly Weather History & Observations

Time (EDT) Temp. Dew Point Humidity Pressure Visibility Wind Dir Wind Speed Gust Speed Precip Events Conditions
12:56 AM 61.9 °F 61.0 °F 97% 29.97 in 7.0 mi NW 5.8 mph - N/A   Overcast
1:47 AM 60.8 °F 59.0 °F 94% 29.99 in 7.0 mi NW 6.9 mph - N/A   Mostly Cloudy
1:56 AM 59.9 °F 59.0 °F 97% 29.99 in 7.0 mi NW 8.1 mph - N/A   Overcast
2:10 AM 60.8 °F 57.2 °F 88% 30.00 in 8.0 mi NNW 6.9 mph - N/A   Mostly Cloudy
2:30 AM 60.8 °F 59.0 °F 94% 30.00 in 7.0 mi North 3.5 mph - N/A   Overcast
2:45 AM 59.0 °F 57.2 °F 94% 30.00 in 6.0 mi North 5.8 mph - N/A   Scattered Clouds
2:56 AM 57.9 °F 57.9 °F 100% 30.00 in 5.0 mi North 4.6 mph - N/A   Partly Cloudy
3:56 AM 56.8 °F 56.8 °F 100% 30.01 in 4.0 mi North 3.5 mph - N/A   Clear
4:23 AM 55.4 °F 55.4 °F 100% 30.03 in 2.0 mi Calm Calm - N/A   Clear
4:47 AM 55.4 °F 55.4 °F 100% 30.03 in 1.2 mi Calm Calm - N/A   Clear
4:56 AM 54.9 °F 54.9 °F 100% 30.03 in 1.2 mi Calm Calm - N/A   Clear
5:04 AM 55.4 °F 55.4 °F 100% 30.03 in 0.8 mi Calm Calm - N/A   Clear
5:10 AM 55.4 °F 55.4 °F 100% 30.04 in 0.2 mi Calm Calm - N/A Fog Fog
5:32 AM 53.6 °F 53.6 °F 100% 30.04 in 0.2 mi Calm Calm - N/A Fog Fog
5:56 AM 52.9 °F 52.9 °F 100% 30.06 in 0.2 mi Calm Calm - N/A Fog Fog
6:01 AM 53.6 °F 53.6 °F 100% 30.06 in 0.2 mi Calm Calm - N/A Fog Fog
6:05 AM 53.6 °F 53.6 °F 100% 30.06 in 0.2 mi Calm Calm - N/A Fog Fog
6:13 AM 55.4 °F 55.4 °F 100% 30.06 in 0.2 mi Calm Calm - N/A Fog Fog
6:22 AM 55.4 °F 55.4 °F 100% 30.07 in 0.2 mi Calm Calm - N/A Fog Fog
6:30 AM 55.4 °F 55.4 °F 100% 30.06 in 0.2 mi Calm Calm - N/A Fog Fog
6:56 AM 57.9 °F 56.8 °F 96% 30.06 in 0.2 mi Calm Calm - N/A Fog Fog
7:21 AM 57.2 °F 57.2 °F 100% 30.07 in 0.2 mi Calm Calm - N/A Fog Fog
7:39 AM 60.8 °F 60.8 °F 100% 30.07 in 2.0 mi NNW 3.5 mph - N/A   Scattered Clouds
7:56 AM 59.9 °F 59.9 °F 100% 30.07 in 3.0 mi NW 5.8 mph - N/A   Scattered Clouds
8:56 AM 63.9 °F 57.9 °F 81% 30.08 in 10.0 mi NNW 5.8 mph - N/A   Partly Cloudy
9:56 AM 65.8 °F 59.9 °F 81% 30.08 in 10.0 mi NW 5.8 mph - N/A   Scattered Clouds
10:56 AM 68.9 °F 59.9 °F 73% 30.08 in 10.0 mi WNW 6.9 mph - N/A   Partly Cloudy
11:56 AM 70.9 °F 59.9 °F 68% 30.09 in 10.0 mi WNW 8.1 mph - N/A   Clear
12:56 PM 73.9 °F 59.9 °F 61% 30.08 in 10.0 mi NW 11.5 mph - N/A   Scattered Clouds
1:56 PM 74.8 °F 59.0 °F 58% 30.08 in 10.0 mi NW 9.2 mph 17.3 mph N/A   Mostly Cloudy
2:56 PM 75.9 °F 56.8 °F 51% 30.07 in 10.0 mi WNW 9.2 mph - N/A   Scattered Clouds
3:56 PM 75.9 °F 55.9 °F 50% 30.07 in 10.0 mi WNW 10.4 mph - N/A   Scattered Clouds
4:56 PM 75.9 °F 55.9 °F 50% 30.06 in 10.0 mi WNW 6.9 mph - N/A   Scattered Clouds
5:56 PM 75.9 °F 54.9 °F 48% 30.07 in 10.0 mi NW 9.2 mph - N/A   Scattered Clouds
6:56 PM 73.9 °F 55.9 °F 53% 30.07 in 10.0 mi NNW 6.9 mph - N/A   Partly Cloudy
7:56 PM 70.9 °F 54.9 °F 57% 30.07 in 10.0 mi North 3.5 mph - N/A   Clear
8:56 PM 63.0 °F 56.8 °F 80% 30.09 in 10.0 mi NNE 4.6 mph - N/A   Clear
9:56 PM 57.9 °F 55.9 °F 93% 30.10 in 10.0 mi SE 3.5 mph - N/A   Clear
10:56 PM 55.9 °F 54.9 °F 96% 30.11 in 8.0 mi ENE 3.5 mph - N/A   Clear
11:56 PM 55.9 °F 55.9 °F 100% 30.12 in 10.0 mi East 5.8 mph - N/A   Clear